Погода в Амурзете

Россия / Еврейская автономная область     47°41′36″N   131°05′43″E
темп.,
°C
ветер,
м/с
пор.,
м/с
влажн.,
%
обл.,
%
осадки,
мм/ч
давл.,
гПа
погр.,
м
26 февраля, пт
пт2601:00−19зсз2387100 0.0 102840
04:00−19зсз2388100 0.0 102750
07:00−20зсз2487100 0.0 102965
10:00−17зсз388266 0.0 1030455
13:00−12ссз611664 0.0 1030950
16:00−10ссз611633 0.0 10291069
19:00−14сз34740 0.0 103249
22:00−18сз22835 0.0 103322
27 февраля, сб
сб2701:00−18зсз228492 0.0 103421
04:00−19ссз118388 0.0 103320
07:00−19юв128489 0.0 103220
10:00−16вюв228294 0.0 1031127
13:00−12вюв3477100 0.0 1027419
16:00−9вюв4782100 0.0 1021593
19:00−9вюв2391100 0.0 101966
22:00−11ссв3394100 0.0 101852
28 февраля, вс
вс2801:00−12св2296100 0.0 101639
04:00−11с1194100 0.0 101621
07:00−9з1290100 0.0 101921
10:00−7сз3984100 0.0 1022694
13:00−8ссз5964100 0.0 1024776
16:00−8ссз5862100 0.0 10251055
19:00−12с347668 0.0 102742
22:00−15ссз388282 0.0 1030213
1 марта, пн
пн101:00−18сз23820 0.0 103221
04:00−19сз33840 0.0 103437
07:00−20зсз22820 0.0 103520
10:00−17сз23740 0.0 1036144
13:00−12зюз34540 0.0 1035975
16:00−11ююз447034 0.0 1033697
19:00−13ююз2295100 0.1 103321
22:00−17с488483 0.3 1035191
2 марта, вт
вт201:00−20ссз33810 0.0 103548
04:00−21сз22790 0.0 103420
07:00−22сз12760 0.0 103420
10:00−19юз01680 0.0 1033110
13:00−14ю23570 0.0 1031466
16:00−12ю35580 0.0 1029657
19:00−16ю23780 0.0 102822
22:00−19ю22841 0.0 102920